GOES 14

Last updated on Tue Jul 01 2025 00:02:21 GMT+0000 (Coordinated Universal Time)

1 35491U 09033A 25181.58320297 -.00000069 00000+0 00000+0 0 9994 2 35491 0.7710 87.8152 0002436 66.9902 225.8393 1.00274031 3066
UTC large
Height (km)
Speed (km/s)
/
Latitude / Longitude
Inclination (degrees)
Orbital Period (minutes)
Azimuth
Elevation
Range (km)
Doppler Factor

Next 0 passes for location: London (51.5072 / 0.1276)

Sorry there are no passes over London.